SL-12 DEB, 41696

Orbit data source: Space-Track

SL-12 DEB, 41696 is space debris in HEO originally from a launch on Mon, 01 Mar 2010 UTC launched from the Tyuratam Missile And Space Complex (TTMTR). Debris objects in space refer to the collection of defunct objects orbiting the Earth. Examples of debris include non-operational satellites, rocket bodies, and fragments generated from explosions, collisions, or faulty payload assembly.

Loading next visibility...
Identifier
41696, 2010-007N
Orbit
HEO
Country
Flag of CISCIS
Related business
Manufacturer
RKKE
Mission
Spacecraft
Bus & Motor
Unknown
Mass
Unknown
Launch date (UTC)
2010-03-01 (16 years ago)
Launch vehicle
Unknown
Launch site
Tyuratam Missile And Space Complex (TTMTR)
Object type
Payload
Rocket body
Debris
Shape & HBR
Unknown shape, 0.1 m
Radar Cross Section
Small (<0.1 m²)

Expand to show TLE details & history
Last TLE update: 1 day ago

TLE from 1 day ago
0 SL-12 DEB
1 41696U 10007N   26033.32587796  .00143881  00000-0  20560-1 0  9994
2 41696  63.6070 276.9195 5499561  24.6260 353.9483  4.82499802173066
Epoch: 2026-02-02T07:49Z
TLE epoch observation values (Epoch: 2026-02-02T07:49:15.855Z)
Latitude
-0.00003°
Longitude
27.08901°
Altitude
494.771 km
Speed
9.438 km/s
True Right ascension
18h 27m 42s
True Declination
0° 00' 00"
Sunlit
Object was in daylight at epoch
Visualization orbit readout
Latitude
Unknown
Longitude
Unknown
Altitude
Unknown
Speed
Unknown
Apparent Right ascension
Unknown
Apparent Declination
Unknown
Sunlit
N/A
Visualization observer readout
Local Sidereal Time
14:36:01
Azimuth
Unknown
Elevation
Unknown
Doppler factor
Unknown
Orbital elements
Apogee altitude
16,549.513 km
Perigee altitude
279.115 km
Semi-major axis
14,792.451 km
Eccentricity
0.54996
Inclination
63.607°
RAAN
276.9195°
Arg. of periapsis
24.626°
True anomaly
335.58041°
Mean anomaly
353.9483°
Eccentric anomaly
346.6987°
Mean motion
1.20638 °/min
Orbital period
298.41 mins
BSTAR
0.02056
Loading maneuver chart data...
Computing Atmospheric mass density...
Loading historical data...
Loading historical data...
Loading historical data...
Loading historical data...
Loading historical data...
Loading historical data...
Loading historical data...

Documentation

Showing up to 5 results
|